Tracking 29892 objects as of 21-Nov-2024
HD Live streaming from Space Station
objects crossing your sky now

STARLINK-3900

Track STARLINK-3900 now!
10-day predictions
STARLINK-3900 is classified as:


NORAD ID: 52461
Int'l Code: 2022-049L
Perigee: 546.0 km
Apogee: 547.7 km
Inclination: 53.2 °
Period: 95.4 minutes
Semi major axis: 6917 km
RCS: Unknown
Launch date: May 6, 2022
Source: United States (US)
Launch site: AIR FORCE EASTERN TEST RANGE (AFETR)
Your satellite tracking list
Your tracking list is empty




NASA's NSSDC Master Catalog

Two Line Element Set (TLE):
1 52461U 22049L   24325.52684929  .00000065  00000-0  22163-4 0  9995
2 52461  53.2172  17.7218 0001209 101.3334 258.7794 15.08848837140967
Source of the keplerian elements: AFSPC